STARLINK-1464, 45751

Orbit data source: Space-Track

STARLINK-1464, 45751 is a payload satellite owned by SpaceX/Seattle (US) in LEO that was launched on Sat, 13 Jun 2020 UTC via an FALCON 9 launch vehicle from the Air Force Eastern Test Range (AFETR). Payload-class satellites include a variety of spacecraft equipped with specific instruments for various scientific and technological missions. These include communications satellites like Starlink; space stations such as the ISS; scientific satellites like the Hubble; Earth observation satellites from companies like Planet Labs, Umbra, and HawkEye 360; GPS; miniature CubeSats for education and research; and military/defense satellites.

Loading next visibility...
Identifier
45751, 2020-038X
Orbit
LEO
Country
Flag of USUS
Related business
Manufacturer
SpaceX/Seattle
Mission
Operational Commercial Communications
Bus & Motor
STARLINK, Unknown motor
Mass
260 kg wet, ~248 kg dry
Launch date (UTC)
2020-06-13 (5 years ago)
Launch vehicle
FALCON 9
Launch site
Air Force Eastern Test Range (AFETR)
Object type
Payload
Rocket body
Debris
Shape & HBR
Box + 1 Pan, 10.1 m
Radar Cross Section
13.562 m², Large (>1 m²)

Expand to show TLE details & history
Last TLE update: 9 hours ago

TLE from 9 hours ago
0 STARLINK-1464
1 45751U 20038X   25286.60740202 -.00002931  00000-0 -17792-3 0  9995
2 45751  53.0565 156.8970 0001427  94.4991 265.6161 15.06400053294314
Epoch: 2025-10-13T14:34Z
TLE epoch observation values (Epoch: 2025-10-13T14:34:39.534Z)
Latitude
-0.00003°
Longitude
-84.1755°
Altitude
548.166 km
Speed
7.589 km/s
True Right ascension
10h 27m 35s
True Declination
0° 00' 00"
Sunlit
Object was in daylight at epoch
Visualization orbit readout
Latitude
Unknown
Longitude
Unknown
Altitude
Unknown
Speed
Unknown
Apparent Right ascension
Unknown
Apparent Declination
Unknown
Sunlit
N/A
Visualization observer readout
Local Sidereal Time
18:25:24
Azimuth
Unknown
Elevation
Unknown
Doppler factor
Unknown
Orbital elements
Apogee altitude
548.47 km
Perigee altitude
546.494 km
Semi-major axis
6,925.619 km
Eccentricity
0.00014
Inclination
53.0565°
RAAN
156.897°
Arg. of periapsis
94.4991°
True anomaly
265.5998°
Mean anomaly
265.6161°
Eccentric anomaly
265.60795°
Mean motion
3.76578 °/min
Orbital period
95.6 mins
BSTAR
-0.00017792
Loading maneuver chart data...
Computing Atmospheric mass density...
Loading historical data...
Loading historical data...
Loading historical data...
Loading historical data...
Loading historical data...
Loading historical data...
Loading historical data...

Documentation

Showing up to 5 results
|